Tracking 21473 objects as of 20-Sep-2020
HD Live streaming from Space Station
objects crossing your sky now

BEESAT-4

Track BEESAT-4 now!
10-day predictions
BEESAT-4 is classified as:


NORAD ID: 41619
Int'l Code: 2016-040W
Perigee: 493.1 km
Apogee: 507.4 km
Inclination: 97.3 °
Period: 94.5 minutes
Semi major axis: 6871 km
RCS: Unknown
Launch date: June 22, 2016
Source: Germany (GER)
Launch site: SRIHARIKOTA (SRI)

Uplink (MHz):
Downlink (MHz): 435.950
Beacon (MHz): 435.950
Mode: 4800bps GMSK CW
Call sign: DP0BEH
Status: Inactive

aabbcc
Your satellite tracking list
Your tracking list is empty




NASA's NSSDC Master Catalog

Two Line Element Set (TLE):
1 41619U 16040W   20263.70449844 +.00000953 +00000-0 +41919-4 0  9990
2 41619 097.3105 320.9737 0010435 198.6942 161.3914 15.24228623223750
Source of the keplerian elements: AFSPC